AirNav   Air Wisconsin Up To $57,000 Bonus
 
 1248 users online  

GE05 Gibson Field Airport
LaFayette, Georgia, USA

GOING TO LAFAYETTE?


FAA INFORMATION EFFECTIVE 22 APRIL 2021

Location

FAA Identifier: GE05
Lat/Long: 34-36-56.0000N 085-20-35.0000W
34-36.933333N 085-20.583333W
34.6155556,-85.3430556
(estimated)
Elevation: 750 ft. / 229 m (estimated)
From city: 5 miles SSW of LAFAYETTE, GA
Time zone: UTC -4 (UTC -5 during Standard Time)
Zip code: 30753

Airport Operations

Airport use: Private use. Permission required prior to landing
Activation date: 08/2004
Control tower: no
ARTCC: ATLANTA CENTER
FSS: ANNISTON FLIGHT SERVICE STATION
Attendance: UNATNDD
Wind indicator: yes
Segmented circle: no

Airport Communications

WX AWOS-3 at 9A5 (5 nm NE): 119.775 (706-639-1976)
WX ASOS at RMG (18 nm SE): 119.925 (706-235-3335)

Nearby radio navigation aids

VOR radial/distance  VOR name  Freq  Var
GQOr203/22.8CHOO CHOO VORTAC115.8001E
RMGr337/29.3ROME VORTAC115.4001E

 
NDB name  Hdg/Dist  Freq  Var  ID
DAISY197/34.334102WCQN -.-. --.- -.

Airport Services

Runway Information

Runway 2/20

Dimensions: 2400 x 50 ft. / 732 x 15 m
Surface: turf
RUNWAY 2  RUNWAY 20
Traffic pattern: leftleft

Airport Ownership and Management from official FAA records

Ownership: Privately-owned
Owner: BLUE MT AIRPARK PROPERTY OWNERS
4749 E. BROOMTOWN RD
TRION, GA 30753
Phone (706) 638-2569
Manager: BLUE MT AIRPARK PROPERTY OWNERS
4749 E. BROOMTOWN RD
TRION, GA 30753
Phone (706) 638-2569

Airport Operational Statistics

Aircraft based on the field: 6
Single engine airplanes: 5
Helicopters: 1
    

Additional Remarks

VISITORS WELCOME BUT FILE LANDING AGREEMENT ON LINE - WWW.BLUEMOUNTAINAIRPARK.COM
FOR CD CTC CHATTANOOGA APCH AT 423-855-6478, WHEN APCH CLSD CTC ATLANTA ARTCC AT 770-210-7692.

Instrument Procedures

There are no published instrument procedures at GE05.

Some nearby airports with instrument procedures:

9A5 - Barwick Lafayette Airport (5 nm NE)
KRMG - Richard B. Russell Regional Airport - J.H. Towers Field (18 nm SE)
4A9 - Isbell Field Airport (21 nm SW)
KCZL - Tom B David Field Airport (22 nm SE)
KDNN - Dalton Municipal Airport (24 nm E)
 
Loc | Ops | Rwys | IFR | FBO | Links
Com | Nav | Svcs | Stats | Notes
Area around GE05 (Gibson Field Airport)
 
Road maps at: MapQuest Bing Google
 
Aerial photo
WARNING: Photo may not be current or correct
Aerial photo of GE05 (Gibson Field Airport)
Photo taken 04-Jul-2007
from a C3-B Stearman

Do you have a better or more recent aerial photo of Gibson Field Airport that you would like to share? If so, please send us your photo.

 
Sectional chart

 
Airport distance calculator
Flying to Gibson Field Airport? Find the distance to fly.

From to GE05

Sunrise and sunset
Times for 23-Apr-2021
 Local
(UTC-4)
 Zulu
(UTC)
Morning civil twilight06:3510:35
Sunrise07:0111:01
Sunset20:1800:18
Evening civil twilight20:4500:45

Current date and time
Zulu (UTC)  23-Apr-2021 13:58:00
Local (UTC-4)  23-Apr-2021 09:58:00
 
METAR
K9A5 
5nm NE 
231335Z AUTO 00000KT 10SM SCT070 OVC090 08/04 A3024 RMK AO2 T00770039
KDNN 
13nm NE 
231335Z AUTO 00000KT 10SM OVC080 07/03 A3025 RMK AO2
KRMG 
18nm SE 
231253Z AUTO 00000KT 10SM SCT070 OVC090 08/04 A3021 RMK AO2 SLP227 T00780039
TAF
KCHA 
26nm N 
231120Z 2312/2412 VRB03KT P6SM SCT080 OVC120 FM232200 16007KT P6SM BKN080 PROB30 2406/2409 4SM -SHRA BR OVC025 FM240900 12005KT P6SM -SHRA OVC022
NOTAMs
Click for the latest NOTAMs
NOTAMs are issued by the DoD/FAA and will open in a separate window not controlled by AirNav.

 

 
 

Would you like to see your business listed on this page?

 If your business provides an interesting product or service to pilots, flight crews, aircraft, or users of the Gibson Field Airport, you should consider listing it here.  To start the listing process, click on the button below
 
Add a business
 

Other Pages about Gibson Field Airport

bluemountainairpark.googlepages.com
 
Update a link
 
Copyright © AirNav, LLC. All rights reserved. Privacy Policy  Contact